Location: Brivio
(45.7333°N, 9.4500°E)
Time: 12:23:25
(UTC+00:00)

Cosmos 2228 - Pass Details

Date: 18 October 2019
Orbit: 588 x 620 km, 82.5° (Epoch: 13 November)

Event Time Altitude Azimuth Distance (km) Brightness Sun altitude
Rises 16:59:19 0° 178° (S) 2,876 6.6 -5.5°
Reaches altitude 10° 17:01:33 10° 175° (S) 1,972 5.7 -5.9°
Maximum altitude 17:05:52 62° 95° (E) 691 3.1 -6.7°
Drops below altitude 10° 17:10:10 10° 15° (NNE) 1,971 5.4 -7.4°
Sets 17:12:24 0° 12° (NNE) 2,875 6.3 -7.8°
